Wind_Speed
60 60 61 63 66 66 72 74 69 69 70 64 64 74 75 73 78 76 76 78 83 89 93 94 95 94 90 91 96 96 99 99 101 101 107 105 86 70 59 51 46 41 38
53 49 50 55 58 59 71 75 80 79 74 71 72 70 70 80 85 85 87 88 90 93 84 90 88 85 92 94 96 97 99 99 104 107 107 102 80 64 54 47 42 39 37
45 38 47 64 64 74 73 78 80 81 83 85 83 83 80 75 78 79 83 82 84 79 79 82 89 92 93 96 97 99 100 103 109 112 109 89 74 59 49 43 40 38 36
36 49 65 70 79 90 77 85 93 94 87 92 88 88 85 82 80 83 79 80 78 80 80 86 90 94 95 99 101 103 107 107 111 110 103 81 67 54 44 40 38 38 35
48 54 65 58 66 76 79 78 71 73 75 79 82 82 87 87 83 76 76 81 80 84 89 92 94 92 96 100 102 104 106 110 108 107 89 77 59 49 41 37 36 37 36
63 60 67 63 73 73 81 77 78 81 87 88 84 86 72 77 82 84 88 86 89 90 92 91 93 96 97 101 104 105 106 105 106 97 85 68 53 44 39 35 35 34 37
80 86 69 66 71 80 79 80 84 87 89 88 86 80 80 76 80 87 91 93 97 92 91 92 92 96 99 98 98 101 104 104 101 87 76 60 49 42 39 35 33 33 36
90 92 84 82 80 83 93 84 85 90 88 91 85 82 80 88 92 94 97 97 93 89 87 87 91 91 92 97 101 102 103 101 86 79 65 53 46 40 38 36 33 33 35
67 80 87 94 93 86 90 94 91 89 92 92 90 90 93 96 93 92 93 91 90 86 88 89 89 92 96 97 99 99 100 87 79 68 56 49 44 40 37 35 35 34 35
92 87 81 87 85 89 96 81 81 88 96 99 100 99 100 97 93 91 90 88 87 90 89 88 90 94 96 96 97 95 84 80 70 60 50 46 43 41 39 37 34 35 36
96 94 92 94 98 87 85 88 94 93 93 97 103 102 99 92 91 90 90 90 91 90 90 90 94 95 95 94 92 81 75 77 63 56 47 45 44 41 39 38 37 37 36
84 85 90 86 87 81 88 90 94 91 87 91 93 93 90 89 90 91 91 88 87 87 91 94 94 93 91 87 78 73 72 72 62 53 47 47 45 43 42 41 40 39 38
78 78 78 74 71 73 86 79 77 80 82 86 89 89 87 86 88 87 85 87 88 90 91 92 91 88 79 76 73 72 72 70 63 54 49 49 47 46 45 46 45 44 44
68 67 56 55 65 64 62 60 61 63 68 75 82 82 81 84 86 86 85 86 88 88 89 85 78 75 73 75 76 76 75 68 64 57 53 51 48 49 48 49 50 50 49
60 51 49 50 51 50 53 56 59 62 69 76 80 77 80 81 80 82 84 85 84 78 75 75 75 75 79 82 81 78 74 67 63 61 55 53 51 50 51 52 53 54 55
61 53 48 45 50 52 55 59 64 68 73 77 77 78 79 78 78 80 79 75 73 74 76 77 80 84 84 85 82 79 70 65 61 57 53 52 52 53 53 53 56 58 59
48 45 44 45 50 57 59 60 64 69 72 74 76 77 75 76 76 76 76 75 77 78 81 85 87 87 88 85 78 72 66 60 57 55 53 52 51 53 54 54 55 58 60
42 42 40 44 50 58 64 65 69 70 71 73 73 74 73 74 75 77 77 79 80 84 88 88 89 89 87 77 71 65 61 58 55 54 54 54 54 54 54 55 56 58 60
38 37 37 41 47 57 54 62 67 67 67 67 69 72 74 76 77 79 80 83 87 88 90 90 89 81 72 68 64 61 57 54 53 52 52 53 54 54 54 56 57 58 59
40 41 43 46 46 50 51 53 58 61 64 68 72 73 74 76 79 82 85 87 89 89 88 83 75 69 67 64 61 58 55 53 51 50 51 52 52 53 55 56 57 59 61
44 44 47 50 50 50 53 55 58 61 64 68 71 75 79 82 84 87 88 88 86 81 75 70 67 65 62 59 57 56 54 52 51 51 51 51 54 55 58 60 62 65 68
47 50 51 52 54 58 60 62 65 68 72 75 78 81 81 81 83 85 82 77 73 70 68 65 63 60 58 58 55 54 52 52 54 55 57 58 61 63 65 67 69 70 71
49 50 51 53 54 56 60 61 62 64 67 70 72 74 75 75 75 75 72 69 65 63 61 59 57 56 56 55 54 54 55 58 60 62 64 66 67 69 71 71 71 70 69
45 48 49 49 51 54 59 63 65 65 66 68 70 71 67 65 62 61 59 57 56 56 55 55 55 54 54 55 57 59 62 65 67 69 71 72 72 72 71 70 69 68 66
44 46 47 47 49 51 53 56 57 57 56 53 52 52 52 51 52 52 52 52 52 53 53 53 54 56 58 60 63 66 69 71 73 73 73 72 71 70 69 67 67 66 64
34 36 38 39 41 42 43 44 45 46 48 48 49 50 49 49 49 49 49 50 51 53 55 57 59 62 64 67 70 73 74 75 74 73 71 70 68 67 66 65 64 64 64
Wind_Direction
248 250 254 261 262 255 270 268 266 268 267 270 264 265 268 268 267 269 271 272 275 281 283 286 287 290 295 297 299 301 302 304 306 310 314 317 314 311 304 298 293 286 278
245 249 249 260 261 259 256 265 266 270 270 269 265 266 269 268 269 270 272 277 279 283 283 285 291 291 296 298 299 301 302 304 309 311 314 316 314 309 301 295 290 282 275
240 244 236 241 250 255 254 260 260 269 275 272 271 273 275 274 272 274 277 279 281 284 283 286 288 293 295 297 300 302 303 305 307 311 314 314 314 306 298 293 287 279 271
240 224 230 246 243 249 252 254 257 266 272 270 271 273 274 278 275 280 281 284 286 289 288 286 287 292 294 298 300 302 303 306 309 312 314 314 311 303 296 290 283 277 268
249 249 245 247 253 247 250 256 261 268 273 278 268 272 276 275 277 279 281 284 284 288 289 289 292 293 293 295 300 302 304 307 309 312 313 313 307 300 295 289 282 275 268
250 250 254 257 252 252 255 258 259 266 272 277 272 277 275 273 276 276 280 285 289 290 288 289 290 291 294 295 298 302 304 307 310 312 312 310 303 299 295 288 280 271 265
252 256 260 255 261 258 255 261 262 268 269 272 271 274 278 279 283 282 283 285 287 288 286 285 287 290 293 297 299 302 304 308 310 310 308 306 301 298 294 289 281 271 265
253 257 259 265 262 254 258 270 265 266 267 264 269 268 274 277 277 278 281 282 286 286 286 287 289 293 295 297 299 303 305 307 306 305 304 301 298 296 293 288 281 271 265
249 259 257 259 265 262 263 272 265 260 262 263 261 268 273 276 277 278 281 284 285 287 288 290 291 293 296 296 300 303 304 303 304 302 301 298 297 295 292 288 282 276 265
245 253 253 256 255 265 268 260 264 264 261 262 262 267 272 276 278 280 281 282 284 286 290 291 293 294 296 299 300 302 299 302 302 302 298 295 292 290 290 286 280 275 271
249 253 256 257 256 266 265 268 268 270 266 263 264 267 271 274 277 278 279 281 283 285 289 291 291 294 296 298 298 298 302 302 302 302 295 292 287 283 282 280 279 276 272
250 252 252 255 257 263 269 271 272 267 264 264 265 266 270 273 275 275 278 281 283 285 287 289 291 293 294 294 295 299 303 303 302 300 293 291 284 279 277 275 272 269 268
252 256 260 265 266 266 264 265 263 263 264 263 265 267 269 273 274 276 278 280 283 285 287 288 290 290 291 295 300 304 304 303 299 297 291 288 282 277 272 271 270 267 268
265 266 265 267 275 260 258 260 258 260 262 263 264 267 268 269 273 275 279 280 282 285 285 287 288 292 296 302 304 304 303 300 295 293 288 288 281 276 272 269 268 266 264
273 272 271 269 263 251 246 247 250 250 253 258 263 267 267 270 273 276 278 280 282 284 287 290 295 298 302 303 302 302 300 298 295 291 289 286 282 277 272 269 267 266 265
271 270 266 257 249 240 240 241 244 249 254 261 266 267 269 273 277 278 283 286 288 290 292 296 298 300 301 299 301 299 298 296 293 289 289 286 282 281 276 271 268 267 268
266 264 259 249 239 237 241 241 244 249 256 260 264 270 275 277 281 282 284 287 289 291 294 294 296 297 297 299 297 296 295 292 290 289 286 283 281 280 277 273 269 268 267
262 258 254 244 237 236 238 240 247 254 259 264 269 273 277 280 280 280 283 286 289 290 291 291 293 294 297 294 294 294 293 291 289 286 282 280 280 279 278 277 275 273 272
251 250 248 245 241 245 248 248 252 258 262 266 269 270 271 274 276 279 283 285 285 286 288 290 291 292 290 290 292 294 293 292 290 288 284 282 282 283 281 278 277 276 274
245 245 246 246 245 247 250 250 254 257 260 262 264 267 271 274 276 277 279 281 283 285 287 288 288 287 287 289 290 290 291 291 289 287 285 284 284 283 281 279 279 278 277
243 242 242 243 247 249 250 252 255 257 261 264 267 269 270 272 276 278 278 279 281 283 284 285 286 287 287 287 287 288 288 288 287 287 287 285 284 283 283 283 283 282 281
248 248 249 249 248 250 251 253 255 258 261 263 265 267 270 272 274 277 279 280 281 284 285 284 285 285 286 286 286 286 287 287 287 287 287 287 286 286 285 285 285 285 285
251 252 252 254 253 255 256 257 259 262 263 264 265 269 272 273 274 277 279 281 283 283 282 283 284 284 284 285 285 285 286 287 288 288 288 288 288 288 288 288 289 289 288
250 252 254 254 253 253 255 256 258 261 263 265 267 270 271 273 276 277 280 281 280 281 282 283 283 284 284 284 286 287 288 288 288 289 289 290 290 290 289 290 289 288 288
248 249 250 251 253 256 257 259 263 265 268 271 274 275 274 276 278 280 281 282 282 283 283 284 283 284 285 287 288 289 288 288 289 290 290 291 291 291 290 290 290 289 288
264 261 262 264 265 268 271 273 274 275 275 276 278 279 280 281 282 283 284 283 283 282 283 284 286 288 289 289 288 288 289 290 290 291 291 291 290 290 290 289 288 288 288
Height
10460 10467 10471 10472 10471 10475 10469 10464 10463 10463 10465 10463 10462 10461 10461 10455 10448 10448 10445 10442 10437 10431 10426 10421 10415 10409 10401 10393 10383 10374 10363 10354 10342 10329 10316 10303 10290 10278 10266 10258 10253 10249 10249
10444 10453 10458 10458 10456 10450 10451 10447 10447 10447 10447 10446 10444 10443 10442 10436 10433 10430 10428 10426 10421 10414 10406 10401 10396 10389 10382 10373 10364 10354 10344 10335 10323 10311 10298 10285 10272 10262 10254 10246 10242 10239 10238
10431 10435 10439 10443 10439 10436 10435 10432 10431 10429 10427 10427 10428 10426 10421 10418 10417 10415 10412 10406 10400 10394 10390 10384 10378 10371 10362 10353 10344 10336 10326 10315 10304 10291 10280 10268 10257 10248 10241 10234 10231 10229 10228
10413 10417 10416 10419 10416 10414 10415 10415 10416 10415 10414 10410 10411 10407 10404 10403 10400 10396 10390 10387 10382 10378 10373 10367 10359 10350 10342 10334 10325 10316 10307 10297 10285 10273 10262 10252 10241 10235 10229 10223 10220 10218 10218
10395 10398 10400 10402 10399 10397 10398 10400 10401 10398 10394 10391 10391 10388 10387 10384 10381 10376 10371 10370 10366 10359 10353 10348 10340 10332 10323 10315 10307 10298 10289 10278 10268 10256 10245 10237 10229 10222 10217 10213 10210 10208 10207
10375 10377 10380 10381 10379 10379 10380 10380 10381 10379 10374 10371 10371 10369 10367 10364 10359 10356 10352 10350 10345 10339 10334 10329 10321 10313 10306 10297 10289 10280 10270 10262 10250 10240 10229 10222 10216 10210 10206 10203 10200 10199 10198
10354 10357 10359 10363 10363 10364 10362 10361 10359 10356 10356 10353 10350 10350 10347 10345 10342 10337 10333 10330 10325 10320 10314 10309 10303 10295 10287 10279 10270 10262 10253 10244 10234 10224 10216 10208 10203 10199 10195 10192 10190 10188 10188
10332 10333 10337 10337 10338 10339 10340 10338 10338 10331 10336 10333 10330 10330 10331 10325 10323 10320 10316 10311 10306 10301 10296 10289 10283 10277 10268 10260 10252 10244 10233 10226 10220 10212 10202 10196 10191 10188 10185 10182 10180 10178 10178
10306 10309 10313 10312 10316 10318 10319 10317 10316 10312 10314 10312 10308 10309 10308 10304 10303 10300 10295 10290 10286 10283 10276 10271 10264 10258 10249 10242 10235 10226 10216 10208 10204 10197 10189 10183 10179 10176 10174 10171 10169 10169 10168
10282 10284 10288 10290 10294 10295 10296 10294 10291 10291 10289 10289 10290 10288 10283 10284 10283 10281 10275 10270 10268 10263 10257 10251 10245 10238 10229 10224 10215 10209 10199 10191 10188 10181 10175 10171 10167 10165 10163 10161 10160 10158 10158
10255 10262 10268 10270 10273 10273 10274 10273 10266 10268 10267 10268 10268 10268 10265 10265 10265 10260 10255 10252 10249 10244 10238 10233 10226 10219 10213 10206 10199 10190 10184 10173 10170 10165 10161 10158 10155 10153 10152 10151 10148 10147 10146
10235 10240 10244 10248 10252 10250 10249 10248 10245 10245 10245 10244 10245 10244 10247 10246 10243 10240 10237 10234 10229 10225 10219 10213 10207 10201 10195 10187 10180 10173 10166 10157 10153 10150 10146 10143 10141 10140 10139 10138 10137 10136 10134
10213 10217 10223 10226 10227 10226 10226 10223 10225 10226 10225 10224 10222 10223 10227 10226 10221 10221 10219 10215 10211 10205 10199 10193 10188 10182 10176 10168 10161 10155 10148 10141 10135 10133 10130 10128 10126 10125 10124 10123 10123 10122 10120
10189 10193 10199 10201 10201 10199 10203 10206 10207 10207 10204 10201 10201 10205 10207 10204 10204 10202 10200 10196 10192 10186 10180 10174 10166 10161 10154 10148 10142 10136 10130 10124 10119 10115 10113 10111 10110 10108 10107 10107 10106 10106 10106
10167 10170 10175 10179 10179 10183 10187 10189 10189 10188 10183 10180 10183 10188 10187 10187 10186 10182 10180 10176 10171 10166 10158 10151 10146 10140 10135 10129 10123 10118 10111 10106 10102 10097 10096 10094 10092 10091 10090 10088 10088 10087 10087
10149 10154 10158 10162 10164 10167 10170 10172 10173 10171 10167 10165 10166 10167 10170 10169 10167 10163 10158 10153 10148 10142 10136 10130 10125 10121 10116 10109 10104 10098 10091 10087 10083 10080 10078 10076 10074 10072 10072 10071 10068 10067 10067
10135 10137 10142 10146 10150 10152 10154 10154 10153 10153 10152 10153 10152 10152 10152 10150 10146 10142 10138 10133 10127 10121 10116 10111 10106 10101 10096 10089 10084 10079 10074 10069 10066 10062 10058 10056 10055 10053 10052 10052 10051 10047 10047
10121 10124 10127 10130 10134 10135 10137 10139 10138 10140 10140 10139 10138 10136 10134 10131 10128 10123 10120 10115 10109 10105 10099 10093 10088 10083 10078 10071 10066 10061 10057 10051 10048 10045 10041 10037 10035 10033 10033 10032 10031 10029 10027
10109 10111 10115 10118 10121 10121 10126 10127 10127 10128 10127 10126 10124 10121 10118 10114 10110 10106 10101 10097 10093 10086 10081 10076 10071 10065 10058 10053 10049 10043 10039 10035 10031 10028 10024 10019 10017 10016 10015 10012 10011 10010 10008
10096 10099 10102 10104 10107 10109 10111 10113 10112 10111 10111 10108 10105 10102 10098 10095 10091 10087 10083 10079 10073 10068 10064 10057 10051 10047 10041 10036 10032 10027 10022 10018 10015 10011 10007 10004 10002 9999 9996 9994 9991 9990 9988
10084 10087 10088 10088 10091 10093 10092 10093 10093 10093 10090 10088 10086 10082 10079 10075 10072 10068 10062 10057 10053 10048 10044 10039 10033 10028 10024 10019 10015 10010 10006 10001 9998 9994 9992 9989 9985 9982 9979 9975 9972 9968 9964
10069 10070 10071 10073 10074 10073 10074 10074 10074 10073 10072 10070 10067 10063 10058 10055 10052 10047 10040 10036 10033 10029 10024 10018 10013 10009 10005 10001 9997 9993 9989 9985 9982 9978 9975 9972 9968 9963 9958 9954 9949 9944 9939
10053 10055 10055 10055 10057 10058 10057 10057 10055 10054 10052 10049 10046 10043 10040 10037 10033 10028 10023 10019 10015 10009 10004 10000 9997 9992 9988 9984 9981 9977 9972 9967 9964 9960 9955 9951 9946 9940 9935 9930 9925 9920 9915
10039 10039 10039 10039 10039 10039 10038 10037 10036 10035 10032 10030 10027 10025 10022 10019 10014 10009 10006 10001 9996 9991 9987 9983 9980 9976 9973 9969 9964 9960 9954 9949 9944 9939 9934 9929 9924 9918 9912 9907 9902 9897 9892
10024 10024 10024 10024 10024 10022 10021 10020 10020 10017 10015 10012 10009 10005 10001 9997 9994 9992 9988 9983 9979 9975 9972 9968 9964 9960 9956 9951 9946 9939 9933 9928 9923 9918 9912 9906 9900 9894 9889 9884 9878 9873 9870
10010 10011 10010 10010 10009 10007 10006 10004 10002 9999 9996 9993 9991 9987 9984 9980 9977 9974 9971 9967 9963 9959 9956 9951 9946 9942 9937 9932 9926 9919 9912 9906 9900 9894 9889 9883 9877 9872 9868 9863 9857 9853 9849